Flag for U.S.A. Weather past 2 weeks in Norfolk, Virginia, U.S.A.

Now
71 °F

Passing clouds.


Feels Like: 77 °F
Forecast: 61 / 74 °F
Wind: 18 mph from Northeast

Location: Norfolk Naval Air Station

Current Time: May 23, 2015 at 8:48:17 AM

Latest Report: May 23, 2015 at 7:59 AM


Visibility: 10 mi

Pressure: 30.41 "Hg

Humidity: 39%

Dew point: 45 °F

Location of NorfolkLocation

Historic Weather in Norfolk — Graph

°F

Norfolk temperature yesterday

Maximum temperature yesterday: 76 °F (at 4:59 PM)
Minimum temperature yesterday: 58 °F (at 4:59 AM)
Average temperature yesterday: 68 °F

Past Weeks' High & Low Weather Summary

 TemperatureHumidityPressure
High94 °F (May 18, 3:59 PM)87% (May 9, 12:59 AM)30.45 "Hg (May 9, 12:59 AM)
Low56 °F (May 15, 2:59 AM)33% (May 22, 2:59 PM)29.80 "Hg (May 21, 3:59 PM)
Average74 °F61%30.12 "Hg
* Reported May 8 7:59 AM — May 23 7:59 AM, Norfolk, Weather by CustomWeather, © 2015

Note: Actual official high and low records may vary slightly from our data, if they occured in-between our weather recording intervals... More about our weather records

Advertising

Norfolk weather history for previous 24 hours

 ConditionsComfort  
Time TempWeatherWind HumidityBarometerVisibility
7:59 AM
Sat, May 23
71 °FPassing clouds.18 mph39%30.41 "Hg10 mi
6:59 AM70 °FScattered clouds.16 mph42%30.38 "Hg10 mi
5:59 AM66 °FPassing clouds.8 mph59%30.35 "Hg10 mi
4:59 AM64 °FPassing clouds.8 mph61%30.32 "Hg10 mi
3:59 AM63 °FClear.5 mph58%30.28 "Hg10 mi
2:59 AM65 °FClear.6 mph52%30.26 "Hg10 mi
1:59 AM65 °FClear.6 mph52%30.26 "Hg10 mi
12:59 AM67 °FClear.7 mph49%30.26 "Hg10 mi
11:59 PM
Fri, May 22
69 °FClear.7 mph44%30.26 "Hg10 mi
10:59 PM69 °FClear.6 mph47%30.24 "Hg10 mi
9:59 PM70 °FClear.6 mph47%30.22 "Hg10 mi
8:59 PM71 °FPassing clouds.3 mph42%30.21 "Hg10 mi
7:59 PM74 °FPassing clouds.6 mph36%30.19 "Hg10 mi
6:59 PM75 °FPassing clouds.6 mph34%30.17 "Hg10 mi
5:59 PM75 °FPassing clouds.5 mph33%30.16 "Hg10 mi
4:59 PM76 °FPassing clouds.6 mph35%30.16 "Hg10 mi
3:59 PM75 °FPassing clouds.7 mph33%30.16 "Hg10 mi
2:59 PM75 °FPassing clouds.8 mph33%30.16 "Hg10 mi
1:59 PM73 °FPassing clouds.8 mph36%30.16 "Hg10 mi
12:59 PM73 °FPassing clouds.9 mph40%30.16 "Hg10 mi
11:59 AM72 °FSunny.7 mph37%30.15 "Hg10 mi
10:59 AM70 °FSunny.10 mph37%30.14 "Hg10 mi
9:59 AM69 °FSunny.14 mph39%30.13 "Hg10 mi
8:59 AM65 °FPassing clouds.14 mph47%30.12 "Hg10 mi
Weather by CustomWeather, © 2015

See weather overviewHow to use our weather pages